Stations météo

Publicité
Mont-De-Marsan, France (7607): Température de l'air & dewpoint: 26.03.2020 09:00:00 - 01.04.2020 09:00:00 (CEST)Mont-De-Marsan, France (7607): Température de l'air 5cm: 26.03.2020 09:00:00 - 01.04.2020 09:00:00 (CEST)Mont-De-Marsan, France (7607): Température de l'air -20cm & Température de l'air -100cm: 26.03.2020 09:00:00 - 01.04.2020 09:00:00 (CEST)Mont-De-Marsan, France (7607): Vitesse du vent & gusts: 26.03.2020 09:00:00 - 01.04.2020 09:00:00 (CEST)Mont-De-Marsan, France (7607): Direction du vent: 26.03.2020 09:00:00 - 01.04.2020 09:00:00 (CEST)Mont-De-Marsan, France (7607): reduced air pressure: 26.03.2020 09:00:00 - 01.04.2020 09:00:00 (CEST)Mont-De-Marsan, France (7607): visibility: 26.03.2020 09:00:00 - 01.04.2020 09:00:00 (CEST)Mont-De-Marsan, France (7607): Ensoleillement: 26.03.2020 09:00:00 - 01.04.2020 09:00:00 (CEST)Mont-De-Marsan, France (7607): Quantités de précipitations: 26.03.2020 09:00:00 - 01.04.2020 09:00:00 (CEST)
Date & Time tt [°C] td [°C] tt 5cm [°C] tt -20cm [°C] tt -100cm [°C] ff [km/h] ff [knt] fx [km/h] fx [knt] dd ppp [hPa] vv [km] sd [min] rr [mm]
01.04.2020 09:00:00 9,0 7,6 7,2 11,5 12,7 5 3 7 4 E 1014,2 17 14 0,0
01.04.2020 08:00:00 7,4 6,2 6,4 11,5 12,7 5 3 10 5 E 1014,1 17 0 0,0
01.04.2020 07:00:00 7,2 6,0 6,4 11,7 12,7 8 5 11 6 NE 1014,1 17 0 0,0
01.04.2020 06:00:00 6,5 5,3 5,7 11,8 12,7 6 4 10 5 NE 1014,4 19 0 0,0
01.04.2020 05:00:00 6,0 4,8 3,9 11,9 12,7 0 0 6 3 N 1014,4 25 0 0,0
01.04.2020 04:00:00 4,6 3,3 1,8 12,1 12,8 3 2 5 3 NE 1014,6 27 0 0,0
01.04.2020 03:00:00 5,0 3,3 3,1 12,2 12,7 3 1 6 3 NE 1014,9 28 0 0,0
01.04.2020 02:00:00 6,5 4,7 3,0 12,3 12,8 0 0 5 3 N 1014,8 31 0 0,0
01.04.2020 01:00:00 6,8 4,5 3,8 12,4 12,8 0 0 8 5 N 1014,9 35 0 0,0
01.04.2020 00:00:00 7,5 4,1 4,3 12,4 12,8 3 2 10 6 ENE 1015,3 45 0 0,0
31.03.2020 23:00:00 10,6 5,4 8,3 12,4 12,9 0 0 5 3 N 1015,3 43 0 0,0
31.03.2020 22:00:00 11,3 5,4 9,1 12,4 12,9 4 2 7 4 NW 1015,2 46 0 0,0
31.03.2020 21:00:00 12,7 4,9 11,2 12,3 12,8 3 1 12 7 SW 1014,9 46 0 0,0
31.03.2020 20:00:00 13,2 4,9 12,7 12,1 12,8 7 4 17 9 S 1014,7 49 0 0,0
31.03.2020 19:00:00 14,4 5,2 15,3 11,8 12,8 11 6 22 12 SE 1014,3 46 44 0,0
31.03.2020 18:00:00 14,4 5,2 15,1 11,5 12,8 9 5 25 13 SE 1014,2 49 17 0,0
31.03.2020 17:00:00 14,2 4,5 16,6 11,1 12,9 13 7 30 16 ESE 1014,3 60 12 0,0
31.03.2020 16:00:00 14,2 4,5 17,1 10,6 12,9 17 9 37 20 E 1014,6 20 34 0,0
31.03.2020 15:00:00 13,8 4,1 16,7 10,3 12,9 20 11 40 22 ESE 1015,0 36 54 0,0
31.03.2020 14:00:00 12,8 4,2 17,5 10,0 12,9 19 10 39 21 E 1015,2 34 60 0,0
31.03.2020 13:00:00 11,3 4,7 13,6 9,8 12,9 16 9 25 14 E 1015,8 34 47 0,0
31.03.2020 12:00:00 7,7 6,5 6,8 9,8 12,9 3 2 7 4 NNE 1016,6 20 10 0,0
31.03.2020 11:00:00 4,2 3,5 3,4 9,9 12,9 2 1 7 4 ENE 1017,1 24 0 0,0
31.03.2020 10:00:00 2,7 2,0 1,6 9,9 12,9 6 3 11 6 ENE 1017,4 17 0 0,0
31.03.2020 09:00:00 0,9 0,2 0,0 10,1 12,9 3 1 5 3 E 1017,4 10 0 0,0
31.03.2020 08:00:00 0,3 -0,4 -1,2 10,2 12,9 3 2 10 5 NE 1017,1 12 0 0,0
31.03.2020 07:00:00 -1,0 -1,8 -3,0 10,4 12,9 4 2 6 3 ENE 1016,9 13 0 0,0
31.03.2020 06:00:00 -1,2 -2,0 -2,9 10,5 12,9 2 1 5 3 NE 1017,2 12 0 0,0
31.03.2020 05:00:00 -1,9 -2,7 -3,4 10,7 12,9 4 2 6 3 NE 1017,3 14 0 0,0
31.03.2020 04:00:00 -1,3 -2,1 -4,3 10,9 12,9 2 1 6 3 E 1017,5 9 0 0,0
31.03.2020 03:00:00 -1,2 -2,2 -3,4 11,0 12,9 3 2 5 3 NE 1017,8 12 0 0,0
31.03.2020 02:00:00 -0,7 -1,7 -2,9 11,3 12,9 3 1 8 4 NNE 1018,2 17 0 0,0
31.03.2020 01:00:00 -0,9 -2,0 -4,6 11,5 13,0 4 2 6 3 NE 1018,6 29 0 0,0
31.03.2020 00:00:00 -0,9 -2,2 -4,2 11,6 13,0 3 1 6 3 NE 1019,1 20 0 0,0
30.03.2020 23:00:00 0,1 -1,5 -4,0 11,7 13,0 4 2 5 3 ENE 1019,2 47 0 0,0
30.03.2020 22:00:00 0,5 -1,6 -2,8 11,8 13,0 5 3 8 4 NNE 1019,1 60 0 0,0
30.03.2020 21:00:00 2,7 -0,4 -2,1 11,9 13,0 0 0 7 4 N 1018,7 60 1 0,0
30.03.2020 20:00:00 4,4 0,2 3,5 11,8 13,0 8 4 9 5 N 1018,2 60 31 0,0
30.03.2020 19:00:00 6,1 0,8 7,0 11,8 13,0 5 3 11 6 WNW 1018,2 60 24 0,0
30.03.2020 18:00:00 5,1 1,0 6,0 11,7 12,9 7 4 11 6 NW 1018,2 60 0 0,0
30.03.2020 17:00:00 5,0 1,5 5,9 11,6 13,0 10 5 17 9 WNW 1018,6 60 0 0,0
30.03.2020 16:00:00 5,4 2,6 5,4 11,5 13,0 6 3 13 7 WNW 1018,8 60 5 0,0
30.03.2020 15:00:00 4,6 2,6 4,1 11,5 13,0 4 2 16 9 W 1019,2 52 0 0,4
30.03.2020 14:00:00 4,3 1,5 5,6 11,5 13,0 5 3 13 7 WNW 1019,7 56 0 0,0
30.03.2020 13:00:00 4,0 1,4 4,5 11,6 13,0 7 4 14 8 NW 1019,9 49 0 0,0
30.03.2020 12:00:00 3,2 0,9 3,4 11,7 13,0 8 5 13 7 WNW 1020,7 52 0 0,0
30.03.2020 11:00:00 3,0 0,9 3,4 11,8 13,0 9 5 19 11 NW 1021,2 42 0 0,0
30.03.2020 10:00:00 2,9 0,8 2,9 12,0 13,0 12 7 20 11 NNW 1020,9 51 0 0,0
30.03.2020 09:00:00 2,5 -0,1 2,3 12,1 13,0 10 6 24 13 NW 1020,9 38 0 0,0
30.03.2020 08:00:00 3,0 -1,0 2,5 12,2 13,0 15 8 24 13 NNW 1020,7 60 0 0,0
30.03.2020 07:00:00 3,7 -1,7 2,9 12,4 13,0 11 6 21 11 NNW 1020,6 60 0 0,0
30.03.2020 06:00:00 3,8 -2,0 2,8 12,6 13,0 9 5 17 9 NNW 1020,8 60 0 0,0
30.03.2020 05:00:00 4,0 -1,2 3,2 12,7 13,0 11 6 18 10 NNW 1021,0 60 0 0,0
30.03.2020 04:00:00 3,8 2,2 3,4 12,9 13,0 9 5 19 10 WNW 1021,5 58 0 0,0
30.03.2020 03:00:00 4,0 2,5 3,5 13,1 13,0 13 7 18 10 W 1022,0 20 0 0,0
30.03.2020 02:00:00 4,1 2,4 3,5 13,3 13,0 13 7 18 10 W 1022,6 19 0 0,0
30.03.2020 01:00:00 4,2 2,4 3,5 13,5 13,0 7 4 9 5 W 1022,6 39 0 0,0
30.03.2020 00:00:00 4,0 2,0 3,5 13,6 13,0 4 2 21 11 ENE 1022,6 29 0 0,2
29.03.2020 23:00:00 4,2 1,6 3,7 13,8 13,0 17 9 39 21 NNE 1022,8 17 0 0,2
29.03.2020 22:00:00 5,4 1,3 4,8 13,9 13,0 28 15 43 23 N 1022,4 20 0 0,2
29.03.2020 21:00:00 6,3 1,2 5,6 13,9 13,0 16 9 38 21 NNE 1021,9 18 0 0,0
29.03.2020 20:00:00 8,1 1,5 7,8 13,8 13,0 24 13 40 22 N 1021,0 33 0 0,0
29.03.2020 19:00:00 10,2 3,0 10,2 13,7 13,0 22 12 35 19 N 1020,2 20 0 0,0
29.03.2020 18:00:00 12,0 4,7 13,3 13,5 13,2 21 12 34 19 N 1019,9 19 0 0,0
29.03.2020 17:00:00 13,2 5,1 15,4 13,2 13,0 21 11 36 19 N 1019,5 17 12 0,0
29.03.2020 16:00:00 14,7 6,3 16,1 12,9 13,6 23 12 35 19 N 1019,5 11 10 0,0
29.03.2020 15:00:00 14,9 6,5 16,3 12,7 13,6 17 9 31 17 NNW 1019,9 10 17 0,0
29.03.2020 14:00:00 15,0 8,0 15,2 12,4 13,4 14 8 24 13 NNW 1020,3 8 33 0,0
29.03.2020 13:00:00 13,5 7,7 18,4 12,3 13,0 11 6 24 13 WNW 1020,8 9 60 0,0
29.03.2020 12:00:00 10,7 9,8 11,8 12,2 13,0 4 2 9 5 W 1021,4 6 32 0,0
29.03.2020 11:00:00 7,5 6,8 8,1 12,3 12,9 5 3 15 8 WNW 1021,7 2,4 0 0,0
29.03.2020 10:00:00 6,5 5,9 5,7 12,4 13,0 6 4 10 5 W 1021,4 2,1 0 0,0
29.03.2020 09:00:00 4,7 4,0 3,5 12,6 13,0 5 3 7 4 W 1021,2 1,7 0 0,0
29.03.2020 08:00:00 3,7 2,8 -0,2 12,8 13,0 3 2 5 3 WNW 1021,0 0,9 0 0,0
29.03.2020 07:00:00 3,7 2,7 -0,1 13,0 13,0 4 2 8 4 W 1020,7 1,1 0 0,0
29.03.2020 06:00:00 4,4 3,2 -1,1 13,3 13,0 6 3 7 4 W 1020,7 1,6 0 0,0
29.03.2020 05:00:00 4,3 2,8 -0,7 13,5 13,0 3 2 5 3 W 1020,8 4,7 0 0,0
29.03.2020 04:00:00 4,6 2,8 -0,4 13,7 13,0 3 2 8 4 SW 1021,1 6 0 0,0
29.03.2020 03:00:00 5,8 3,5 1,2 13,9 13,0 5 3 9 5 SW 1021,3 7 0 0,0
29.03.2020 02:00:00 5,8 3,0 1,1 14,2 13,0 6 4 10 5 WSW 1021,5 9 0 0,0
29.03.2020 01:00:00 6,1 2,5 1,4 14,4 13,0 5 3 9 5 W 1021,3 12 0 0,0
29.03.2020 00:00:00 7,6 2,9 1,6 14,6 13,0 5 3 10 5 W 1021,2 14 0 0,0
28.03.2020 23:00:00 8,2 3,0 3,6 14,7 13,0 6 3 13 7 W 1021,0 19 0 0,0
28.03.2020 22:00:00 9,2 2,5 5,1 14,8 13,0 9 5 15 8 WNW 1020,6 24 0 0,0
28.03.2020 21:00:00 11,4 2,9 7,4 14,7 12,9 8 5 18 10 W 1019,7 26 0 0,0
28.03.2020 20:00:00 14,8 3,6 13,6 14,6 13,7 13 7 28 15 NW 1018,9 20 60 0,0
28.03.2020 19:00:00 17,8 0,9 19,2 14,3 13,9 13 7 21 12 WNW 1018,0 60 60 0,0
28.03.2020 18:00:00 18,4 1,4 22,4 13,8 14,5 11 6 22 12 NW 1017,7 60 60 0,0
28.03.2020 17:00:00 18,6 0,7 22,5 13,4 14,7 10 5 23 13 W 1017,7 60 60 0,0
28.03.2020 16:00:00 18,5 1,5 22,7 12,9 15,0 9 5 25 13 NNW 1018,1 52 60 0,0
28.03.2020 15:00:00 17,5 2,2 23,1 12,4 13,0 5 3 21 11 WNW 1018,8 20 60 0,0
28.03.2020 14:00:00 16,7 1,9 23,5 12,1 13,0 7 4 18 10 N 1019,3 19 60 0,0
28.03.2020 13:00:00 16,0 2,0 21,6 11,9 13,0 8 4 16 8 WNW 1019,7 19 60 0,0
28.03.2020 12:00:00 14,2 3,6 19,9 11,8 13,9 6 4 14 7 WNW 1019,9 17 60 0,0
28.03.2020 11:00:00 12,4 2,5 15,7 11,9 13,1 2 1 4 2 NE 1020,0 19 60 0,0
28.03.2020 10:00:00 8,7 3,3 8,2 12,0 13,0 0 0 4 2 N 1019,8 26 60 0,0
28.03.2020 09:00:00 4,3 2,8 0,2 12,2 13,0 0 0 5 3 N 1019,4 25 53 0,0
28.03.2020 08:00:00 1,4 -0,1 -0,6 12,4 13,0 0 0 4 2 N 1018,8 30 0 0,0
28.03.2020 07:00:00 1,2 -0,4 -0,7 12,6 13,0 0 0 5 3 N 1018,3 31 0 0,0
28.03.2020 06:00:00 1,2 -0,7 -0,7 12,8 13,0 3 1 5 3 NE 1018,1 31 0 0,0
28.03.2020 05:00:00 1,9 -0,2 -0,8 13,1 13,0 0 0 3 2 N 1017,9 29 0 0,0
28.03.2020 04:00:00 2,5 0,1 -0,6 13,3 13,0 0 0 5 3 N 1018,1 34 0 0,0
28.03.2020 03:00:00 3,4 0,3 -0,2 13,5 13,0 0 0 9 5 N 1018,2 40 0 0,0
28.03.2020 02:00:00 4,5 0,8 0,9 13,7 13,0 0 0 8 5 N 1018,0 44 0 0,0
28.03.2020 01:00:00 5,1 0,7 1,2 13,9 13,0 3 2 6 3 NW 1018,0 43 0 0,0
28.03.2020 00:00:00 6,0 0,9 1,1 14,1 13,0 2 1 6 3 E 1017,9 53 0 0,0
27.03.2020 23:00:00 7,5 0,7 2,1 14,2 13,0 4 2 12 7 WNW 1017,4 37 0 0,0
27.03.2020 22:00:00 9,4 1,3 3,5 14,2 13,0 3 2 9 5 E 1016,9 59 0 0,0
27.03.2020 21:00:00 11,4 0,8 5,3 14,2 13,0 7 4 10 5 NNE 1016,2 60 0 0,0
27.03.2020 20:00:00 14,7 -1,0 14,3 14,0 14,3 4 2 16 8 NE 1015,5 60 58 0,0
27.03.2020 19:00:00 15,6 -1,1 19,2 13,7 14,6 9 5 18 10 N 1014,9 60 60 0,0
27.03.2020 18:00:00 15,9 -0,4 17,4 13,3 15,4 10 6 21 11 NNE 1014,6 60 49 0,0
27.03.2020 17:00:00 16,4 0,9 22,4 12,8 15,9 8 4 16 9 NNW 1014,8 60 60 0,0
27.03.2020 16:00:00 16,4 3,4 21,9 12,3 14,7 4 2 24 13 SSE 1015,2 60 60 0,0
27.03.2020 15:00:00 15,3 2,4 21,7 11,9 15,0 9 5 16 8 E 1015,8 60 60 0,0
27.03.2020 14:00:00 14,3 2,8 21,4 11,5 14,3 5 3 11 6 SW 1016,4 18 60 0,0
27.03.2020 13:00:00 12,8 3,7 19,4 11,3 13,0 6 3 11 6 WNW 1016,9 60 60 0,0
27.03.2020 12:00:00 11,6 4,6 16,8 11,3 13,1 3 2 6 3 WNW 1017,3 37 60 0,0
27.03.2020 11:00:00 8,8 7,7 8,3 11,4 13,0 0 0 5 3 N 1017,4 20 60 0,0
27.03.2020 10:00:00 3,9 3,3 2,4 11,6 13,0 4 2 8 4 NE 1017,2 12 60 0,0
27.03.2020 09:00:00 0,3 -0,3 -4,5 11,9 13,0 4 2 6 3 NE 1016,9 13 50 0,0
27.03.2020 08:00:00 -1,4 -2,1 -4,4 12,1 13,1 0 0 5 3 N 1016,6 14 0 0,0
27.03.2020 07:00:00 -1,6 -2,3 -4,1 12,4 13,1 6 3 9 5 NE 1016,3 11 0 0,0
27.03.2020 06:00:00 -0,3 -1,0 -3,6 12,6 13,0 2 1 8 4 NNE 1016,2 12 0 0,0
27.03.2020 05:00:00 -0,8 -1,5 -2,9 12,9 13,1 5 3 11 6 NNE 1016,0 9 0 0,0
27.03.2020 04:00:00 -0,2 -1,0 -2,2 13,1 13,0 7 4 9 5 NE 1015,7 7 0 0,0
27.03.2020 03:00:00 0,5 -0,4 -1,9 13,4 13,1 5 3 8 4 NE 1015,6 6 0 0,0
27.03.2020 02:00:00 1,3 0,3 -1,4 13,6 13,1 2 1 7 4 NE 1015,2 2,5 0 0,0
27.03.2020 01:00:00 2,5 1,3 -0,2 13,8 13,1 4 2 8 4 E 1015,5 9 0 0,0
27.03.2020 00:00:00 3,0 1,5 0,8 14,1 13,1 8 4 12 7 ENE 1015,3 10 0 0,0
26.03.2020 23:00:00 4,3 1,3 1,4 14,2 13,1 6 4 15 8 NE 1014,9 17 0 0,0
26.03.2020 22:00:00 7,3 4,1 5,6 14,3 13,1 4 2 14 8 SSE 1014,5 30 0 0,0
26.03.2020 21:00:00 7,5 4,3 6,2 14,3 13,2 8 5 25 14 E 1014,1 42 0 1,6
26.03.2020 20:00:00 9,6 2,0 7,4 14,3 13,3 7 4 25 14 S 1012,7 59 0 0,0
26.03.2020 19:00:00 10,9 1,4 10,7 14,1 13,2 17 9 25 13 E 1011,8 42 0 0,0
26.03.2020 18:00:00 12,4 -1,9 12,3 13,8 13,5 11 6 18 10 NNW 1011,1 60 2 0,0
26.03.2020 17:00:00 12,9 -1,5 14,1 13,4 13,7 8 4 19 10 W 1010,9 56 15 0,0
26.03.2020 16:00:00 13,6 -0,8 15,1 13,0 13,1 6 3 18 10 NW 1011,0 33 41 0,0
26.03.2020 15:00:00 13,4 -0,6 20,0 12,5 13,7 6 3 26 14 WNW 1011,3 19 60 0,0
26.03.2020 14:00:00 12,0 -0,5 18,9 12,3 13,7 5 3 16 9 WNW 1011,9 30 60 0,0
26.03.2020 13:00:00 10,8 0,2 15,7 12,2 13,0 7 4 17 9 WNW 1012,3 20 60 0,0
26.03.2020 12:00:00 9,4 0,5 13,4 12,2 13,1 8 4 13 7 NNW 1012,8 19 60 0,0
26.03.2020 11:00:00 6,8 0,2 8,6 12,3 13,0 6 3 14 8 WNW 1012,6 14 60 0,0
26.03.2020 10:00:00 3,7 1,7 2,4 12,6 13,0 8 4 16 8 WNW 1012,5 19 60 0,0
26.03.2020 09:00:00 - - - - - - - - - - - - - -

tt = Température de l'air
td = dewpoint
tt 5cm = Température de l'air 5cm
tt -20cm = Température de l'air -20cm
tt -100cm = Température de l'air -100cm
ff = Vitesse du vent
fx = gusts
dd = Direction du vent
ppp = reduced air pressure
vv = visibility
sd = Ensoleillement
rr = Quantités de précipitations

stations d'obs. à proximité